Time,TemperatureF,DewpointF,PressureIn,WindDirection,WindDirectionDegrees,WindSpeedMPH,WindSpeedGustMPH,Humidity,HourlyPrecipIn,Conditions,Clouds,dailyrainin,SoftwareType,DateUTC
2013-01-20 00:00:00,41.2,26.3,29.75,West,270,5.4,7.6,55,0.00,,,0.00,pywws,2013-01-20 05:00:00,
2013-01-20 00:01:00,41.2,26.3,29.75,SW,225,4.5,6.0,55,0.00,,,0.00,pywws,2013-01-20 05:01:00,
2013-01-20 00:05:00,41.0,26.1,29.75,SSW,202,3.1,4.5,55,0.00,,,0.00,pywws,2013-01-20 05:05:00,
2013-01-20 00:11:00,41.0,26.1,29.74,West,270,5.4,7.6,55,0.00,,,0.00,pywws,2013-01-20 05:11:00,
2013-01-20 00:16:00,40.8,26.8,29.73,SW,225,3.8,6.9,57,0.00,,,0.00,pywws,2013-01-20 05:16:00,
2013-01-20 00:22:00,40.8,26.8,29.73,West,270,5.4,9.2,57,0.00,,,0.00,pywws,2013-01-20 05:22:00,
2013-01-20 00:28:00,40.6,26.6,29.72,West,270,4.5,6.9,57,0.00,,,0.00,pywws,2013-01-20 05:28:00,
2013-01-20 00:33:00,40.6,26.6,29.72,SW,225,3.1,5.4,57,0.00,,,0.00,pywws,2013-01-20 05:33:00,
2013-01-20 00:39:00,40.5,26.4,29.72,West,270,6.0,9.8,57,0.00,,,0.00,pywws,2013-01-20 05:39:00,
2013-01-20 00:44:00,40.5,26.4,29.71,South,180,3.8,6.0,57,0.00,,,0.00,pywws,2013-01-20 05:44:00,
2013-01-20 00:50:00,40.5,26.4,29.71,South,180,3.8,6.0,57,0.00,,,0.00,pywws,2013-01-20 05:50:00,
2013-01-20 00:56:00,40.1,26.5,29.71,SSW,202,3.8,8.3,58,0.00,,,0.00,pywws,2013-01-20 05:56:00,
2013-01-20 01:01:00,39.9,26.4,29.70,SW,225,6.0,11.4,58,0.00,,,0.00,pywws,2013-01-20 06:01:00,
2013-01-20 01:07:00,39.9,26.4,29.70,SW,225,6.0,11.4,58,0.00,,,0.00,pywws,2013-01-20 06:07:00,
2013-01-20 01:12:00,39.7,26.2,29.70,West,270,2.2,3.1,58,0.00,,,0.00,pywws,2013-01-20 06:12:00,
2013-01-20 01:17:00,39.7,26.2,29.70,SW,225,3.1,4.5,58,0.00,,,0.00,pywws,2013-01-20 06:17:00,
2013-01-20 01:23:00,39.7,26.2,29.70,SW,225,3.8,6.0,58,0.00,,,0.00,pywws,2013-01-20 06:23:00,
2013-01-20 01:28:00,39.6,26.4,29.69,SW,225,1.6,3.1,59,0.00,,,0.00,pywws,2013-01-20 06:28:00,
2013-01-20 01:34:00,39.6,26.4,29.69,WSW,248,6.0,7.6,59,0.00,,,0.00,pywws,2013-01-20 06:34:00,
2013-01-20 01:40:00,39.6,26.4,29.69,NW,315,2.2,6.9,59,0.00,,,0.00,pywws,2013-01-20 06:40:00,
2013-01-20 01:45:00,39.6,26.4,29.69,SW,225,2.2,3.8,59,0.00,,,0.00,pywws,2013-01-20 06:45:00,
2013-01-20 01:51:00,39.6,26.4,29.69,SW,225,1.6,3.1,59,0.00,,,0.00,pywws,2013-01-20 06:51:00,
2013-01-20 01:56:00,39.7,26.6,29.69,WSW,248,4.5,5.4,59,0.00,,,0.00,pywws,2013-01-20 06:56:00,
2013-01-20 02:02:00,39.6,26.4,29.69,NW,315,4.5,8.3,59,0.00,,,0.00,pywws,2013-01-20 07:02:00,
2013-01-20 02:08:00,39.6,26.4,29.69,NW,315,5.4,10.7,59,0.00,,,0.00,pywws,2013-01-20 07:08:00,
2013-01-20 02:13:00,39.4,26.7,29.70,NW,315,3.1,4.5,60,0.00,,,0.00,pywws,2013-01-20 07:13:00,
2013-01-20 02:19:00,39.2,26.5,29.69,West,270,3.8,6.0,60,0.00,,,0.00,pywws,2013-01-20 07:19:00,
2013-01-20 02:24:00,39.0,26.7,29.69,SW,225,5.4,7.6,61,0.00,,,0.00,pywws,2013-01-20 07:24:00,
2013-01-20 02:30:00,38.8,26.9,29.69,West,270,2.2,3.8,62,0.00,,,0.00,pywws,2013-01-20 07:30:00,
2013-01-20 02:36:00,38.7,26.8,29.69,SW,225,3.1,4.5,62,0.00,,,0.00,pywws,2013-01-20 07:36:00,
2013-01-20 02:41:00,38.5,27.0,29.68,West,270,1.6,2.2,63,0.00,,,0.00,pywws,2013-01-20 07:41:00,
2013-01-20 02:47:00,38.5,27.0,29.69,South,180,2.2,4.5,63,0.00,,,0.00,pywws,2013-01-20 07:47:00,
2013-01-20 02:52:00,38.3,27.2,29.68,West,270,3.8,4.5,64,0.00,,,0.00,pywws,2013-01-20 07:52:00,
2013-01-20 02:58:00,38.1,27.0,29.67,NW,315,3.1,4.5,64,0.00,,,0.00,pywws,2013-01-20 07:58:00,
2013-01-20 03:04:00,38.1,27.0,29.67,SW,225,3.1,4.5,64,0.00,,,0.00,pywws,2013-01-20 08:04:00,
2013-01-20 03:09:00,38.1,27.0,29.67,South,180,2.2,4.5,64,0.00,,,0.00,pywws,2013-01-20 08:09:00,
2013-01-20 03:15:00,37.9,27.2,29.67,SW,225,3.8,4.5,65,0.00,,,0.00,pywws,2013-01-20 08:15:00,
2013-01-20 03:20:00,37.8,27.1,29.67,NW,315,2.2,3.8,65,0.00,,,0.00,pywws,2013-01-20 08:20:00,
2013-01-20 03:26:00,37.6,26.9,29.66,WSW,248,4.5,6.0,65,0.00,,,0.00,pywws,2013-01-20 08:26:00,
2013-01-20 03:32:00,37.6,26.9,29.66,NE,45,2.2,4.5,65,0.00,,,0.00,pywws,2013-01-20 08:32:00,
2013-01-20 03:37:00,37.6,26.9,29.67,South,180,3.1,4.5,65,0.00,,,0.00,pywws,2013-01-20 08:37:00,
2013-01-20 03:43:00,37.6,26.9,29.66,SW,225,2.2,3.8,65,0.00,,,0.00,pywws,2013-01-20 08:43:00,
2013-01-20 03:48:00,37.4,26.7,29.66,SW,225,3.1,6.9,65,0.00,,,0.00,pywws,2013-01-20 08:48:00,
2013-01-20 03:54:00,37.4,27.1,29.66,SW,225,3.1,5.4,66,0.00,,,0.00,pywws,2013-01-20 08:54:00,
2013-01-20 04:00:00,37.4,27.1,29.65,NW,315,2.2,4.5,66,0.00,,,0.00,pywws,2013-01-20 09:00:00,
2013-01-20 04:05:00,37.4,27.1,29.65,West,270,4.5,6.9,66,0.00,,,0.00,pywws,2013-01-20 09:05:00,
2013-01-20 04:11:00,37.2,25.4,29.65,West,270,2.2,3.8,62,0.00,,,0.00,pywws,2013-01-20 09:11:00,
2013-01-20 04:16:00,37.0,25.2,29.64,SW,225,3.1,5.4,62,0.00,,,0.00,pywws,2013-01-20 09:16:00,
2013-01-20 04:22:00,37.0,25.2,29.63,NW,315,2.2,3.8,62,0.00,,,0.00,pywws,2013-01-20 09:22:00,
2013-01-20 04:28:00,36.9,25.1,29.63,SW,225,2.2,4.5,62,0.00,,,0.00,pywws,2013-01-20 09:28:00,
2013-01-20 04:33:00,36.9,25.1,29.63,West,270,2.2,3.8,62,0.00,,,0.00,pywws,2013-01-20 09:33:00,
2013-01-20 04:39:00,36.7,24.9,29.62,West,270,2.2,3.8,62,0.00,,,0.00,pywws,2013-01-20 09:39:00,
2013-01-20 04:44:00,36.7,25.3,29.62,NE,45,1.6,2.2,63,0.00,,,0.00,pywws,2013-01-20 09:44:00,
2013-01-20 04:50:00,36.7,25.3,29.62,West,270,3.8,4.5,63,0.00,,,0.00,pywws,2013-01-20 09:50:00,
2013-01-20 04:56:00,36.5,25.1,29.62,NW,315,3.1,3.8,63,0.00,,,0.00,pywws,2013-01-20 09:56:00,
2013-01-20 05:01:00,36.5,25.1,29.62,NW,315,2.2,3.8,63,0.00,,,0.00,pywws,2013-01-20 10:01:00,
2013-01-20 05:07:00,36.5,25.1,29.61,SW,225,3.1,4.5,63,0.00,,,0.00,pywws,2013-01-20 10:07:00,
2013-01-20 05:12:00,36.3,24.9,29.61,NW,315,1.6,3.8,63,0.00,,,0.00,pywws,2013-01-20 10:12:00,
2013-01-20 05:18:00,36.3,24.9,29.60,SW,225,2.2,3.1,63,0.00,,,0.00,pywws,2013-01-20 10:18:00,
2013-01-20 05:24:00,36.3,24.9,29.60,SW,225,2.2,3.8,63,0.00,,,0.00,pywws,2013-01-20 10:24:00,
2013-01-20 05:29:00,36.3,24.9,29.60,South,180,2.2,3.1,63,0.00,,,0.00,pywws,2013-01-20 10:29:00,
2013-01-20 05:35:00,36.5,25.1,29.60,NW,315,2.2,5.4,63,0.00,,,0.00,pywws,2013-01-20 10:35:00,
2013-01-20 05:40:00,36.5,25.1,29.60,West,270,3.1,4.5,63,0.00,,,0.00,pywws,2013-01-20 10:40:00,
2013-01-20 05:46:00,36.5,25.1,29.60,SW,225,2.2,4.5,63,0.00,,,0.00,pywws,2013-01-20 10:46:00,
2013-01-20 05:52:00,36.5,25.1,29.59,SW,225,2.2,3.8,63,0.00,,,0.00,pywws,2013-01-20 10:52:00,
2013-01-20 05:57:00,36.3,24.9,29.59,SW,225,0.7,2.2,63,0.00,,,0.00,pywws,2013-01-20 10:57:00,
2013-01-20 06:03:00,36.3,24.9,29.59,NW,315,0.7,2.2,63,0.00,,,0.00,pywws,2013-01-20 11:03:00,
2013-01-20 06:08:00,36.5,25.1,29.59,WNW,292,3.8,5.4,63,0.00,,,0.00,pywws,2013-01-20 11:08:00,
2013-01-20 06:14:00,36.5,25.1,29.59,North,0,3.8,6.9,63,0.00,,,0.00,pywws,2013-01-20 11:14:00,
2013-01-20 06:20:00,36.7,25.3,29.59,SW,225,3.1,5.4,63,0.00,,,0.00,pywws,2013-01-20 11:20:00,
2013-01-20 06:25:00,36.5,25.1,29.59,South,180,1.6,3.1,63,0.00,,,0.00,pywws,2013-01-20 11:25:00,
2013-01-20 06:31:00,36.3,24.9,29.58,SW,225,3.1,4.5,63,0.00,,,0.00,pywws,2013-01-20 11:31:00,
2013-01-20 06:36:00,36.5,25.1,29.58,SW,225,3.8,4.5,63,0.00,,,0.00,pywws,2013-01-20 11:36:00,
2013-01-20 06:42:00,36.5,25.1,29.59,South,180,3.1,4.5,63,0.00,,,0.00,pywws,2013-01-20 11:42:00,
2013-01-20 06:48:00,36.3,24.9,29.58,NW,315,2.2,3.8,63,0.00,,,0.00,pywws,2013-01-20 11:48:00,
2013-01-20 06:53:00,36.5,25.1,29.58,South,180,1.6,3.1,63,0.00,,,0.00,pywws,2013-01-20 11:53:00,
2013-01-20 06:59:00,36.1,24.8,29.58,SW,225,0.7,1.6,63,0.00,,,0.00,pywws,2013-01-20 11:59:00,
2013-01-20 07:04:00,36.1,24.8,29.58,SW,225,0.7,1.6,63,0.00,,,0.00,pywws,2013-01-20 12:04:00,
2013-01-20 07:10:00,36.1,24.8,29.58,North,-999,0.0,0.7,63,0.00,,,0.00,pywws,2013-01-20 12:10:00,
2013-01-20 07:16:00,35.8,24.8,29.58,NW,315,0.7,1.6,64,0.00,,,0.00,pywws,2013-01-20 12:16:00,
2013-01-20 07:21:00,35.8,24.8,29.58,NW,315,0.7,2.2,64,0.00,,,0.00,pywws,2013-01-20 12:21:00,
2013-01-20 07:27:00,36.0,25.0,29.58,NW,315,3.1,5.4,64,0.00,,,0.00,pywws,2013-01-20 12:27:00,
2013-01-20 07:32:00,36.1,25.2,29.58,SW,225,1.6,3.1,64,0.00,,,0.00,pywws,2013-01-20 12:32:00,
2013-01-20 07:38:00,36.1,24.8,29.58,West,270,3.8,4.5,63,0.00,,,0.00,pywws,2013-01-20 12:38:00,
2013-01-20 07:44:00,36.3,24.9,29.58,SW,225,1.6,5.4,63,0.00,,,0.00,pywws,2013-01-20 12:44:00,
2013-01-20 07:49:00,36.5,25.1,29.58,SW,225,3.1,3.8,63,0.00,,,0.00,pywws,2013-01-20 12:49:00,
2013-01-20 07:55:00,36.7,25.3,29.57,WSW,248,2.2,3.8,63,0.00,,,0.00,pywws,2013-01-20 12:55:00,
2013-01-20 08:00:00,36.7,24.9,29.58,SE,135,3.1,5.4,62,0.00,,,0.00,pywws,2013-01-20 13:00:00,
2013-01-20 08:06:00,36.9,25.1,29.58,SE,135,4.5,8.3,62,0.00,,,0.00,pywws,2013-01-20 13:06:00,
2013-01-20 08:12:00,37.0,25.2,29.58,West,270,3.1,4.5,62,0.00,,,0.00,pywws,2013-01-20 13:12:00,
2013-01-20 08:17:00,37.2,25.4,29.58,SW,225,2.2,3.8,62,0.00,,,0.00,pywws,2013-01-20 13:17:00,
2013-01-20 08:23:00,37.6,26.9,29.58,SW,225,2.2,3.8,65,0.00,,,0.00,pywws,2013-01-20 13:23:00,
2013-01-20 08:28:00,37.9,27.2,29.58,NE,45,2.2,4.5,65,0.00,,,0.00,pywws,2013-01-20 13:28:00,
2013-01-20 08:34:00,37.9,27.2,29.58,South,180,1.6,3.1,65,0.00,,,0.00,pywws,2013-01-20 13:34:00,
2013-01-20 08:40:00,37.9,27.2,29.59,SW,225,1.6,3.1,65,0.00,,,0.00,pywws,2013-01-20 13:40:00,
2013-01-20 08:45:00,38.3,27.2,29.59,SW,225,4.5,6.9,64,0.00,,,0.00,pywws,2013-01-20 13:45:00,
2013-01-20 08:51:00,38.7,27.5,29.59,South,180,3.1,6.9,64,0.00,,,0.00,pywws,2013-01-20 13:51:00,
2013-01-20 08:56:00,39.2,26.9,29.59,SW,225,1.6,2.2,61,0.00,,,0.00,pywws,2013-01-20 13:56:00,
2013-01-20 09:02:00,39.6,26.8,29.59,SW,225,4.5,6.0,60,0.00,,,0.00,pywws,2013-01-20 14:02:00,
2013-01-20 09:08:00,39.9,26.8,29.59,NW,315,2.2,3.8,59,0.00,,,0.00,pywws,2013-01-20 14:08:00,
2013-01-20 09:13:00,40.3,26.7,29.59,West,270,2.2,3.8,58,0.00,,,0.00,pywws,2013-01-20 14:13:00,
2013-01-20 09:19:00,41.2,27.1,29.59,SW,225,2.2,4.5,57,0.00,,,0.00,pywws,2013-01-20 14:19:00,
2013-01-20 09:25:00,43.3,27.8,29.59,South,180,3.8,4.5,54,0.00,,,0.00,pywws,2013-01-20 14:25:00,
2013-01-20 09:30:00,44.4,27.9,29.58,West,270,3.1,4.5,52,0.00,,,0.00,pywws,2013-01-20 14:30:00,
2013-01-20 09:36:00,45.5,27.5,29.59,South,180,2.2,3.8,49,0.00,,,0.00,pywws,2013-01-20 14:36:00,
2013-01-20 09:41:00,45.5,26.5,29.58,South,180,3.1,5.4,47,0.00,,,0.00,pywws,2013-01-20 14:41:00,
2013-01-20 09:47:00,45.1,26.6,29.58,NE,45,2.2,5.4,48,0.00,,,0.00,pywws,2013-01-20 14:47:00,
2013-01-20 09:52:00,44.8,26.8,29.59,WSW,248,3.8,6.0,49,0.00,,,0.00,pywws,2013-01-20 14:52:00,
2013-01-20 09:58:00,46.2,27.6,29.58,WSW,248,3.8,6.0,48,0.00,,,0.00,pywws,2013-01-20 14:58:00,
2013-01-20 10:04:00,47.5,28.3,29.58,NW,315,2.2,3.1,47,0.00,,,0.00,pywws,2013-01-20 15:04:00,
2013-01-20 10:09:00,48.2,27.9,29.58,West,270,4.5,6.0,45,0.00,,,0.00,pywws,2013-01-20 15:09:00,
2013-01-20 10:15:00,46.9,27.8,29.58,West,270,3.1,4.5,47,0.00,,,0.00,pywws,2013-01-20 15:15:00,
2013-01-20 10:20:00,46.6,27.4,29.57,SE,135,1.6,3.1,47,0.00,,,0.00,pywws,2013-01-20 15:20:00,
2013-01-20 10:26:00,46.6,28.0,29.57,South,180,2.2,3.8,48,0.00,,,0.00,pywws,2013-01-20 15:26:00,
2013-01-20 10:32:00,47.5,28.3,29.57,West,270,0.7,2.2,47,0.00,,,0.00,pywws,2013-01-20 15:32:00,
2013-01-20 10:37:00,47.8,28.6,29.57,West,270,2.2,3.8,47,0.00,,,0.00,pywws,2013-01-20 15:37:00,
2013-01-20 10:43:00,47.8,28.1,29.56,South,180,1.6,3.1,46,0.00,,,0.00,pywws,2013-01-20 15:43:00,
2013-01-20 10:48:00,48.2,27.9,29.56,West,270,3.8,7.6,45,0.00,,,0.00,pywws,2013-01-20 15:48:00,
2013-01-20 10:54:00,48.0,27.7,29.56,West,270,2.2,3.8,45,0.00,,,0.00,pywws,2013-01-20 15:54:00,
2013-01-20 11:00:00,47.7,27.4,29.55,West,270,3.8,6.0,45,0.00,,,0.00,pywws,2013-01-20 16:00:00,
2013-01-20 11:05:00,47.8,28.1,29.55,West,270,3.8,5.4,46,0.00,,,0.00,pywws,2013-01-20 16:05:00,
2013-01-20 11:11:00,47.8,28.1,29.55,North,0,3.8,5.4,46,0.00,,,0.00,pywws,2013-01-20 16:11:00,
2013-01-20 11:16:00,48.2,27.9,29.55,West,270,4.5,6.9,45,0.00,,,0.00,pywws,2013-01-20 16:16:00,
2013-01-20 11:22:00,48.2,27.3,29.55,South,180,4.5,7.6,44,0.00,,,0.00,pywws,2013-01-20 16:22:00,
2013-01-20 11:28:00,48.4,27.5,29.54,WSW,248,3.8,6.0,44,0.00,,,0.00,pywws,2013-01-20 16:28:00,
2013-01-20 11:33:00,48.6,27.6,29.54,SE,135,3.1,6.0,44,0.00,,,0.00,pywws,2013-01-20 16:33:00,
2013-01-20 11:39:00,48.9,28.0,29.55,NNW,338,8.3,14.5,44,0.00,,,0.00,pywws,2013-01-20 16:39:00,
2013-01-20 11:44:00,49.3,27.2,29.54,North,0,7.6,13.0,42,0.00,,,0.00,pywws,2013-01-20 16:44:00,
2013-01-20 11:50:00,49.3,26.0,29.54,East,90,6.9,9.8,40,0.00,,,0.00,pywws,2013-01-20 16:50:00,
2013-01-20 11:56:00,49.3,26.6,29.53,SW,225,7.6,12.1,41,0.00,,,0.00,pywws,2013-01-20 16:56:00,
2013-01-20 12:01:00,49.5,27.3,29.53,SW,225,9.8,15.2,42,0.00,,,0.00,pywws,2013-01-20 17:01:00,
2013-01-20 12:07:00,49.8,28.8,29.53,SW,225,5.4,8.3,44,0.00,,,0.00,pywws,2013-01-20 17:07:00,
2013-01-20 12:12:00,50.2,27.4,29.53,West,270,3.8,6.9,41,0.00,,,0.00,pywws,2013-01-20 17:12:00,
2013-01-20 12:18:00,50.5,26.5,29.52,West,270,6.0,12.1,39,0.00,,,0.00,pywws,2013-01-20 17:18:00,
2013-01-20 12:24:00,50.4,26.4,29.53,West,270,6.9,11.4,39,0.00,,,0.00,pywws,2013-01-20 17:24:00,
2013-01-20 12:29:00,50.0,26.0,29.53,SW,225,7.6,9.8,39,0.00,,,0.00,pywws,2013-01-20 17:29:00,
2013-01-20 12:35:00,49.8,27.1,29.53,NW,315,3.8,6.0,41,0.00,,,0.00,pywws,2013-01-20 17:35:00,
2013-01-20 12:41:00,49.6,25.7,29.53,West,270,6.0,8.3,39,0.00,,,0.00,pywws,2013-01-20 17:41:00,
2013-01-20 12:46:00,48.7,25.5,29.53,NW,315,3.8,5.4,40,0.00,,,0.00,pywws,2013-01-20 17:46:00,
2013-01-20 12:52:00,48.2,26.2,29.53,SW,225,4.5,8.3,42,0.00,,,0.00,pywws,2013-01-20 17:52:00,
2013-01-20 12:57:00,48.0,27.2,29.53,NW,315,3.8,6.9,44,0.00,,,0.00,pywws,2013-01-20 17:57:00,
2013-01-20 13:03:00,47.7,25.7,29.53,SW,225,3.8,6.9,42,0.00,,,0.00,pywws,2013-01-20 18:03:00,
2013-01-20 13:08:00,47.7,25.7,29.53,WSW,248,3.8,9.8,42,0.00,,,0.00,pywws,2013-01-20 18:08:00,
2013-01-20 13:14:00,47.7,25.7,29.53,NW,315,3.1,3.8,42,0.00,,,0.00,pywws,2013-01-20 18:14:00,
2013-01-20 13:20:00,49.8,27.7,29.53,West,270,3.1,4.5,42,0.00,,,0.00,pywws,2013-01-20 18:20:00,
2013-01-20 13:25:00,52.2,26.0,29.52,South,180,9.8,13.6,36,0.00,,,0.00,pywws,2013-01-20 18:25:00,
2013-01-20 13:31:00,52.7,25.8,29.53,South,180,7.6,9.8,35,0.00,,,0.00,pywws,2013-01-20 18:31:00,
2013-01-20 13:36:00,52.3,23.4,29.53,South,180,5.4,10.7,32,0.00,,,0.00,pywws,2013-01-20 18:36:00,
2013-01-20 13:42:00,52.9,23.8,29.53,West,270,3.8,6.0,32,0.00,,,0.00,pywws,2013-01-20 18:42:00,
2013-01-20 13:48:00,53.1,24.0,29.54,West,270,2.2,5.4,32,0.00,,,0.00,pywws,2013-01-20 18:48:00,
2013-01-20 13:53:00,53.2,21.0,29.54,SW,225,3.1,3.8,28,0.00,,,0.00,pywws,2013-01-20 18:53:00,
2013-01-20 13:59:00,53.8,23.9,29.53,SW,225,4.5,11.4,31,0.00,,,0.00,pywws,2013-01-20 18:59:00,
2013-01-20 14:04:00,53.6,19.6,29.54,North,0,4.5,6.0,26,0.00,,,0.00,pywws,2013-01-20 19:04:00,
2013-01-20 14:10:00,53.4,18.5,29.54,SE,135,6.0,11.4,25,0.00,,,0.00,pywws,2013-01-20 19:10:00,
2013-01-20 14:16:00,54.0,19.9,29.54,SW,225,6.9,10.7,26,0.00,,,0.00,pywws,2013-01-20 19:16:00,
2013-01-20 14:21:00,54.3,15.2,29.55,North,0,4.5,5.4,21,0.00,,,0.00,pywws,2013-01-20 19:21:00,
2013-01-20 14:27:00,54.7,15.5,29.55,NW,315,3.8,6.0,21,0.00,,,0.00,pywws,2013-01-20 19:27:00,
2013-01-20 14:32:00,54.1,12.8,29.55,North,0,3.1,4.5,19,0.00,,,0.00,pywws,2013-01-20 19:32:00,
2013-01-20 14:38:00,54.7,13.3,29.56,NW,315,4.5,8.3,19,0.00,,,0.00,pywws,2013-01-20 19:38:00,
2013-01-20 14:44:00,55.2,16.0,29.57,West,270,5.4,9.2,21,0.00,,,0.00,pywws,2013-01-20 19:44:00,
2013-01-20 14:49:00,54.5,11.9,29.57,SW,225,7.6,13.6,18,0.00,,,0.00,pywws,2013-01-20 19:49:00,
2013-01-20 14:55:00,53.1,13.1,29.57,NW,315,6.9,9.8,20,0.00,,,0.00,pywws,2013-01-20 19:55:00,
2013-01-20 15:00:00,51.8,10.9,29.57,NE,45,4.5,8.3,19,0.00,,,0.00,pywws,2013-01-20 20:00:00,
2013-01-20 15:06:00,51.3,11.6,29.58,SW,225,5.4,9.8,20,0.00,,,0.00,pywws,2013-01-20 20:06:00,
2013-01-20 15:12:00,50.9,12.4,29.58,West,270,3.8,5.4,21,0.00,,,0.00,pywws,2013-01-20 20:12:00,
2013-01-20 15:17:00,51.1,12.5,29.59,South,180,6.9,9.8,21,0.00,,,0.00,pywws,2013-01-20 20:17:00,
2013-01-20 15:23:00,50.2,12.8,29.59,West,270,3.8,6.9,22,0.00,,,0.00,pywws,2013-01-20 20:23:00,
2013-01-20 15:28:00,49.5,12.2,29.59,West,270,3.1,4.5,22,0.00,,,0.00,pywws,2013-01-20 20:28:00,
2013-01-20 15:34:00,49.3,13.1,29.60,ESE,112,4.5,9.2,23,0.00,,,0.00,pywws,2013-01-20 20:34:00,
2013-01-20 15:40:00,49.1,14.8,29.60,West,270,3.1,5.4,25,0.00,,,0.00,pywws,2013-01-20 20:40:00,
2013-01-20 15:45:00,48.6,13.4,29.61,West,270,4.5,6.0,24,0.00,,,0.00,pywws,2013-01-20 20:45:00,
2013-01-20 15:51:00,48.4,13.3,29.61,NW,315,8.3,11.4,24,0.00,,,0.00,pywws,2013-01-20 20:51:00,
2013-01-20 15:56:00,47.8,13.7,29.61,West,270,7.6,17.5,25,0.00,,,0.00,pywws,2013-01-20 20:56:00,
2013-01-20 16:02:00,48.0,13.9,29.62,West,270,3.8,4.5,25,0.00,,,0.00,pywws,2013-01-20 21:02:00,
2013-01-20 16:08:00,48.0,15.7,29.62,NW,315,2.2,4.5,27,0.00,,,0.00,pywws,2013-01-20 21:08:00,
2013-01-20 16:13:00,47.1,14.9,29.62,West,270,3.1,5.4,27,0.00,,,0.00,pywws,2013-01-20 21:13:00,
2013-01-20 16:19:00,46.8,15.4,29.63,SSW,202,6.0,12.1,28,0.00,,,0.00,pywws,2013-01-20 21:19:00,
2013-01-20 16:24:00,45.7,15.3,29.64,NE,45,3.1,4.5,29,0.00,,,0.00,pywws,2013-01-20 21:24:00,
2013-01-20 16:30:00,45.1,11.4,29.64,NW,315,5.4,9.2,25,0.00,,,0.00,pywws,2013-01-20 21:30:00,
2013-01-20 16:36:00,44.6,11.9,29.64,West,270,4.5,9.2,26,0.00,,,0.00,pywws,2013-01-20 21:36:00,
2013-01-20 16:41:00,44.2,13.2,29.65,SE,135,3.1,5.4,28,0.00,,,0.00,pywws,2013-01-20 21:41:00,
2013-01-20 16:47:00,43.5,12.6,29.65,North,0,3.8,6.0,28,0.00,,,0.00,pywws,2013-01-20 21:47:00,
2013-01-20 16:52:00,43.2,12.3,29.66,NW,315,1.6,3.8,28,0.00,,,0.00,pywws,2013-01-20 21:52:00,
2013-01-20 16:58:00,42.3,15.2,29.67,North,0,3.1,5.4,33,0.00,,,0.00,pywws,2013-01-20 21:58:00,
2013-01-20 17:04:00,41.4,16.4,29.67,North,0,3.8,5.4,36,0.00,,,0.00,pywws,2013-01-20 22:04:00,
2013-01-20 17:09:00,40.8,15.3,29.68,WNW,292,3.1,4.5,35,0.00,,,0.00,pywws,2013-01-20 22:09:00,
2013-01-20 17:15:00,40.3,15.5,29.69,NE,45,2.2,3.1,36,0.00,,,0.00,pywws,2013-01-20 22:15:00,
2013-01-20 17:20:00,39.9,15.8,29.69,NW,315,0.7,2.2,37,0.00,,,0.00,pywws,2013-01-20 22:20:00,
2013-01-20 17:26:00,39.6,15.5,29.70,NE,45,2.2,4.5,37,0.00,,,0.00,pywws,2013-01-20 22:26:00,
2013-01-20 17:32:00,39.2,14.5,29.70,North,0,3.1,4.5,36,0.00,,,0.00,pywws,2013-01-20 22:32:00,
2013-01-20 17:37:00,38.7,14.7,29.70,NW,315,4.5,6.9,37,0.00,,,0.00,pywws,2013-01-20 22:37:00,
2013-01-20 17:43:00,38.1,14.8,29.71,North,0,3.8,6.0,38,0.00,,,0.00,pywws,2013-01-20 22:43:00,
2013-01-20 17:48:00,37.8,13.9,29.72,NW,315,3.1,4.5,37,0.00,,,0.00,pywws,2013-01-20 22:48:00,
2013-01-20 17:54:00,37.2,12.8,29.72,WNW,292,4.5,7.6,36,0.00,,,0.00,pywws,2013-01-20 22:54:00,
2013-01-20 18:00:00,37.0,11.3,29.73,North,0,3.8,5.4,34,0.00,,,0.00,pywws,2013-01-20 23:00:00,
2013-01-20 18:05:00,36.7,10.3,29.73,North,0,3.1,4.5,33,0.00,,,0.00,pywws,2013-01-20 23:05:00,
2013-01-20 18:11:00,36.3,12.0,29.74,North,0,3.1,4.5,36,0.00,,,0.00,pywws,2013-01-20 23:11:00,
2013-01-20 18:16:00,36.1,10.5,29.73,NW,315,4.5,6.0,34,0.00,,,0.00,pywws,2013-01-20 23:16:00,
2013-01-20 18:22:00,35.8,11.5,29.74,NW,315,3.8,5.4,36,0.00,,,0.00,pywws,2013-01-20 23:22:00,
2013-01-20 18:28:00,35.8,9.5,29.74,NW,315,3.1,4.5,33,0.00,,,0.00,pywws,2013-01-20 23:28:00,
2013-01-20 18:33:00,35.4,11.1,29.74,NW,315,3.1,5.4,36,0.00,,,0.00,pywws,2013-01-20 23:33:00,
2013-01-20 18:39:00,34.9,11.3,29.75,North,0,2.2,3.8,37,0.00,,,0.00,pywws,2013-01-20 23:39:00,
2013-01-20 18:44:00,34.7,9.2,29.75,North,0,3.8,5.4,34,0.00,,,0.00,pywws,2013-01-20 23:44:00,
2013-01-20 18:50:00,34.7,7.2,29.75,North,0,3.1,3.8,31,0.00,,,0.00,pywws,2013-01-20 23:50:00,
2013-01-20 18:56:00,34.5,6.3,29.75,WNW,292,3.8,5.4,30,0.00,,,0.00,pywws,2013-01-20 23:56:00,
2013-01-20 19:01:00,34.3,4.7,29.75,North,0,3.8,5.4,28,0.00,,,0.00,pywws,2013-01-21 00:01:00,
2013-01-20 19:07:00,34.2,4.5,29.76,West,270,4.5,9.2,28,0.00,,,0.00,pywws,2013-01-21 00:07:00,
2013-01-20 19:12:00,33.8,4.2,29.77,NE,45,4.5,8.3,28,0.00,,,0.00,pywws,2013-01-21 00:12:00,
2013-01-20 19:18:00,33.6,4.8,29.77,NW,315,3.8,6.0,29,0.00,,,0.00,pywws,2013-01-21 00:18:00,
2013-01-20 19:23:00,33.4,4.6,29.77,North,0,3.8,5.4,29,0.00,,,0.00,pywws,2013-01-21 00:23:00,
2013-01-20 19:28:00,33.3,4.5,29.77,NW,315,3.8,6.0,29,0.00,,,0.00,pywws,2013-01-21 00:28:00,
2013-01-20 19:34:00,33.1,4.3,29.78,North,0,3.8,6.0,29,0.00,,,0.00,pywws,2013-01-21 00:34:00,
2013-01-20 19:40:00,32.9,6.3,29.78,NW,315,3.1,4.5,32,0.00,,,0.00,pywws,2013-01-21 00:40:00,
2013-01-20 19:45:00,32.7,6.8,29.79,NW,315,5.4,9.8,33,0.00,,,0.00,pywws,2013-01-21 00:45:00,
2013-01-20 19:51:00,32.5,8.0,29.79,NW,315,3.1,4.5,35,0.00,,,0.00,pywws,2013-01-21 00:51:00,
2013-01-20 19:57:00,32.4,7.2,29.79,North,0,3.8,6.0,34,0.00,,,0.00,pywws,2013-01-21 00:57:00,
2013-01-20 20:02:00,32.4,7.2,29.80,North,0,2.2,4.5,34,0.00,,,0.00,pywws,2013-01-21 01:02:00,
2013-01-20 20:08:00,32.2,8.3,29.79,NW,315,3.8,5.4,36,0.00,,,0.00,pywws,2013-01-21 01:08:00,
2013-01-20 20:13:00,32.0,8.7,29.80,WNW,292,3.1,6.0,37,0.00,,,0.00,pywws,2013-01-21 01:13:00,
2013-01-20 20:19:00,31.8,9.7,29.80,NW,315,3.1,4.5,39,0.00,,,0.00,pywws,2013-01-21 01:19:00,
2013-01-20 20:25:00,31.8,9.7,29.80,NW,315,3.1,3.8,39,0.00,,,0.00,pywws,2013-01-21 01:25:00,
2013-01-20 20:30:00,31.5,11.0,29.80,North,0,2.2,3.1,42,0.00,,,0.00,pywws,2013-01-21 01:30:00,
2013-01-20 20:36:00,31.3,10.3,29.81,North,0,2.2,3.1,41,0.00,,,0.00,pywws,2013-01-21 01:36:00,
2013-01-20 20:41:00,31.1,10.7,29.81,NW,315,2.2,4.5,42,0.00,,,0.00,pywws,2013-01-21 01:41:00,
2013-01-20 20:47:00,30.9,10.6,29.82,NNW,338,3.1,5.4,42,0.00,,,0.00,pywws,2013-01-21 01:47:00,
2013-01-20 20:52:00,30.9,10.6,29.82,NE,45,3.1,4.5,42,0.00,,,0.00,pywws,2013-01-21 01:52:00,
2013-01-20 20:58:00,30.7,9.3,29.82,NNE,22,2.2,4.5,40,0.00,,,0.00,pywws,2013-01-21 01:58:00,
2013-01-20 21:04:00,30.6,8.6,29.82,East,90,4.5,7.6,39,0.00,,,0.00,pywws,2013-01-21 02:04:00,
2013-01-20 21:09:00,30.4,7.8,29.83,NW,315,3.8,6.9,38,0.00,,,0.00,pywws,2013-01-21 02:09:00,
2013-01-20 21:15:00,30.2,8.8,29.83,NNE,22,3.1,4.5,40,0.00,,,0.00,pywws,2013-01-21 02:15:00,
2013-01-20 21:20:00,30.0,8.7,29.83,North,0,2.2,5.4,40,0.00,,,0.00,pywws,2013-01-21 02:20:00,
2013-01-20 21:26:00,29.8,8.5,29.83,North,0,3.8,6.0,40,0.00,,,0.00,pywws,2013-01-21 02:26:00,
2013-01-20 21:32:00,29.7,8.9,29.83,North,0,3.8,7.6,41,0.00,,,0.00,pywws,2013-01-21 02:32:00,
2013-01-20 21:37:00,29.5,9.3,29.83,North,0,3.1,3.8,42,0.00,,,0.00,pywws,2013-01-21 02:37:00,
2013-01-20 21:43:00,29.1,9.4,29.83,North,0,2.2,3.8,43,0.00,,,0.00,pywws,2013-01-21 02:43:00,
2013-01-20 21:48:00,28.9,9.3,29.83,North,0,3.1,4.5,43,0.00,,,0.00,pywws,2013-01-21 02:48:00,
2013-01-20 21:54:00,28.8,8.6,29.83,North,0,2.2,3.1,42,0.00,,,0.00,pywws,2013-01-21 02:54:00,
2013-01-20 22:00:00,28.6,7.4,29.83,North,0,3.1,3.8,40,0.00,,,0.00,pywws,2013-01-21 03:00:00,
2013-01-20 22:05:00,28.6,7.4,29.83,North,0,3.8,5.4,40,0.00,,,0.00,pywws,2013-01-21 03:05:00,
2013-01-20 22:11:00,28.4,8.8,29.83,North,0,3.8,4.5,43,0.00,,,0.00,pywws,2013-01-21 03:11:00,
2013-01-20 22:17:00,28.2,5.3,29.84,NW,315,4.5,6.0,37,0.00,,,0.00,pywws,2013-01-21 03:17:00,
2013-01-20 22:22:00,28.0,5.7,29.84,West,270,2.2,5.4,38,0.00,,,0.00,pywws,2013-01-21 03:22:00,
2013-01-20 22:28:00,27.7,6.0,29.84,NW,315,4.5,6.9,39,0.00,,,0.00,pywws,2013-01-21 03:28:00,
2013-01-20 22:33:00,27.7,4.2,29.84,North,0,2.2,3.8,36,0.00,,,0.00,pywws,2013-01-21 03:33:00,
2013-01-20 22:39:00,27.5,3.5,29.84,North,0,3.1,3.8,35,0.00,,,0.00,pywws,2013-01-21 03:39:00,
2013-01-20 22:44:00,27.3,2.7,29.85,North,0,3.1,6.9,34,0.00,,,0.00,pywws,2013-01-21 03:44:00,
2013-01-20 22:50:00,27.3,2.1,29.84,NE,45,3.1,3.8,33,0.00,,,0.00,pywws,2013-01-21 03:50:00,
2013-01-20 22:56:00,27.0,3.0,29.85,NW,315,2.2,3.8,35,0.00,,,0.00,pywws,2013-01-21 03:56:00,
2013-01-20 23:01:00,27.0,3.0,29.85,NW,315,2.2,3.1,35,0.00,,,0.00,pywws,2013-01-21 04:01:00,
2013-01-20 23:07:00,26.8,3.4,29.85,West,270,1.6,3.1,36,0.00,,,0.00,pywws,2013-01-21 04:07:00,
2013-01-20 23:12:00,26.6,4.5,29.85,West,270,2.2,3.1,38,0.00,,,0.00,pywws,2013-01-21 04:12:00,
2013-01-20 23:18:00,26.4,5.4,29.85,North,0,2.2,4.5,40,0.00,,,0.00,pywws,2013-01-21 04:18:00,
2013-01-20 23:24:00,26.2,4.1,29.85,North,0,1.6,2.2,38,0.00,,,0.00,pywws,2013-01-21 04:24:00,
2013-01-20 23:29:00,26.1,5.1,29.85,North,0,1.6,3.1,40,0.00,,,0.00,pywws,2013-01-21 04:29:00,
2013-01-20 23:35:00,26.1,3.4,29.85,North,0,0.7,1.6,37,0.00,,,0.00,pywws,2013-01-21 04:35:00,
2013-01-20 23:40:00,26.1,4.0,29.85,North,0,3.1,4.5,38,0.00,,,0.00,pywws,2013-01-21 04:40:00,
2013-01-20 23:46:00,26.1,3.4,29.85,West,270,4.5,11.4,37,0.00,,,0.00,pywws,2013-01-21 04:46:00,
2013-01-20 23:52:00,26.1,4.0,29.85,West,270,3.1,4.5,38,0.00,,,0.00,pywws,2013-01-21 04:52:00,
2013-01-20 23:57:00,25.9,3.8,29.85,SW,225,1.6,3.1,38,0.00,,,0.00,pywws,2013-01-21 04:57:00,